Other Surface Observations
Issued by NWS

Home | Current Version | Previous Version | Text Only | Print | Product List | Glossary On
Versions: 1 2 3 4 5 6 7 8 9 10 11 12 13 14 15 16 17 18 19 20 21 22 23 24 25 26 27 28 29 30 31 32 33 34 35 36 37 38 39 40 41 42 43 44 45 46 47 48 49 50
415
SXUS52 KTAE 240518
OSOTAE
OSOTAE
North Florida/South Alabama/Southwest Georgia Weather Roundup
National Weather Service Tallahassee Florida
100 AM EDT MON JUL 24 2017

Note: "fair" indicates few or no clouds below 12,000 feet with no
significant weather and/or obstructions to visibility.

!FLZ017-115-028-034-025-240600
...North Florida...

CITY           SKY/WX    TMP DP  RH WIND       PRES   REMARKS
TALLAHASSEE    CLEAR     76  76 100 SE3       29.98R
APALACHICOLA   CLEAR     82  77  84 SW7       29.98S HX  90
PERRY          CLOUDY    77  75  93 SE3       30.00S
CROSS CITY     PTCLDY    75  74  98 CALM      30.06R
JACKSONVILLE   MOCLDY    76  75  97 S7        30.00S
$$

!FLZ112-006-005-002-011-240600
...Florida Panhandle...

CITY           SKY/WX    TMP DP  RH WIND       PRES   REMARKS
MARIANNA       PTCLDY    77  75  93 S8        29.96R
BONIFAY        NOT AVBL
PANAMA CITY NW MOCLDY    79  74  84 S6        29.96R
TYNDALL AFB    PTCLDY    82  73  74 SW10      29.97S
TYND DRONE APT FAIR      82  74  77 SW7       29.97R
DE FUNIAK SPR  MOCLDY    73  72  95 CALM      29.97S
EGLIN AFB      SHOWER    82  73  74 W13       29.96R FOG
DESTIN         CLOUDY    85  73  67 SW8       29.95S HX  91
HURLBURT       NOT AVBL
CRESTVIEW      PTCLDY    75  72  90 CALM      29.97R
PENSACOLA      PTCLDY    81  73  76 SW5       29.95R
$$

!ALZ063-066-240600
...South Alabama...

CITY           SKY/WX    TMP DP  RH WIND       PRES   REMARKS
DOTHAN         CLEAR     77  75  93 SW6       30.00R
OZARK CAIRNS   CLEAR     76  73  91 SW6       29.96S
FT RUCKER HELI CLEAR     75  73  93 CALM      29.95R
RUCKER HELI 3  FAIR      76  73  90 SW3       29.96R
RUCKER HELI 2  FAIR      76  74  93 CALM      29.95R
FLORALA APT    CLEAR     75  71  87 CALM      29.98R
ANDALUSIA      CLEAR     78  73  84 W3        29.96R
TROY           CLEAR     74  74 100 CALM      29.96R
EUFALA         FAIR      77  74  90 SW3       29.94S
MOBILE         CLEAR     76  72  87 W5        29.98R
$$

!GAZ120>161-240600
...Southwest and South Central Georgia...

CITY           SKY/WX    TMP DP  RH WIND       PRES   REMARKS
THOMASVILLE    FAIR      77  77 100 CALM      29.99S
BAINBRIDGE     CLEAR     77  77 100 S6        29.97S
MOODY AFB      CLEAR     75  74  94 S7        29.97S
VALDOSTA       CLEAR     75  74  96 S6        29.99S
MOULTRIE       PTCLDY    77  73  88 S5        29.98F
BLAKELY        CLEAR     77  73  88 CALM      29.97R
ALBANY         CLEAR     77  75  93 S6        29.97F
TIFTON         FAIR      76  76 100 S6        29.96F
FITZGERALD     FAIR      78  76  92 S6        29.99S
CORDELE        FAIR      83  76  81 SW5       29.96S HX  91
AMERICUS       FAIR      77  77 100 SW5       29.97S
HOMERVILLE     FAIR      77  75  94 S7        29.98F
$$

!GMZ750-755-770-775-240600
...Coastal and Buoy Obs...

STATION/POSITION TIME  TEMP    WIND        PRES    VSBY  WAVE
                       AIR SEA DIR/SP/G                  HT/PER
                 (UTC) (F)     (DEG/KT/KT) (MB)    (MI)  (FT/S)
KEATON BEACH     0500   83     210/  9/ 11 1015.4S
CEDAR KEY        0500   82     200/ 13/ 16 1016.7R
C TOWER          NOT AVBL
APALACHICOLA BUO 0450   85 86  250/ 10/ 12 1016.1R         2/ 4
PANAMA CITY BUOY 0450   83 85  220/ 12/ 12 1015.4R         2/ 5
MOBILE BUOY      0500   83 85  250/ 10/ 12 1015.6
ORANGE BCH AL BU 0450   83 86  290/ 17/ 19 1013.8R         3/ 5
$$




USA.gov is the U.S. government's official web portal to all federal, state and local government web resources and services.